DW8769 Cullera ES current weather conditions

sailwx.info

Wind from 074

Air temperature 18.9° C
Dewpoint 13.9° C

Last reported at 2018-Apr-24 15:57 UTC.
Time now 2018-Apr-24 16:42 UTC

Location: N 39°10' W 000°14'.
View on Google Maps.

See reports from other nearby stations

  
Tides and Currents Weather Stations Pressure Air Temp Water Temp Dewpoint Dewpoint Depression Visibility Wind Speed Wind Dir Waves Ship Positions
date/time (UTC)wind fromknots sea level pressurealtimeterstation pressurevisibilityair tempwater tempwave heightnotes
2018-Apr-24 15:57 074 18.9
2018-Apr-24 15:42 077 18.9
2018-Apr-24 15:27 087 1 gusting 4 18.9
2018-Apr-24 15:12 061 18.9
2018-Apr-24 14:57 052 0 gusting 4 18.9
2018-Apr-24 14:42 066 18.9
2018-Apr-24 14:27 257 18.3
2018-Apr-24 14:12 069 18.3
2018-Apr-24 13:57 053 0 gusting 6 18.9
2018-Apr-24 13:41 064 3 gusting 6 18.9
2018-Apr-24 13:26 085 2 gusting 7 18.9
2018-Apr-24 13:11 054 0 gusting 6 19.4
2018-Apr-24 12:56 088 18.9
2018-Apr-24 12:42 060 0 gusting 6 18.9
2018-Apr-24 12:26 071 0 gusting 6 18.9
2018-Apr-24 12:11 131 1 gusting 7 18.9
2018-Apr-24 11:56 078 3 gusting 7 19.4
2018-Apr-24 11:41 071 2 gusting 6 20.0
2018-Apr-24 11:26 042 0 gusting 6 19.4
2018-Apr-24 11:11 066 19.4
2018-Apr-24 10:56 063 19.4
2018-Apr-24 10:41 062 18.9
2018-Apr-24 10:26 066 18.3
2018-Apr-24 10:11 070 2 gusting 6 18.3
2018-Apr-24 09:56 058 2 gusting 6 18.3
2018-Apr-24 09:41 064 1 gusting 6 18.3
2018-Apr-24 09:26 108 18.3
2018-Apr-24 09:11 049 1 gusting 6 17.8
2018-Apr-24 08:56 073 17.8
2018-Apr-24 08:41 077 17.2
2018-Apr-24 08:26 065 0 gusting 4 17.2
2018-Apr-24 08:11 099 16.7
2018-Apr-24 07:56 087 16.7
2018-Apr-24 07:41 022 16.7
2018-Apr-24 07:26 257 16.1
2018-Apr-24 07:11 257 16.7
2018-Apr-24 06:56 057 0 gusting 8 17.2
2018-Apr-24 06:41 009 3 gusting 8 17.2
2018-Apr-24 06:26 048 17.2
2018-Apr-24 06:11 059 17.2
2018-Apr-24 05:56 072 1 gusting 5 17.2
2018-Apr-24 05:41 360 17.2
2018-Apr-24 05:26 337 17.2
2018-Apr-24 05:11 337 17.2
2018-Apr-24 04:56 321 17.2
2018-Apr-24 04:40 292 17.2
2018-Apr-24 04:25 292 17.2
2018-Apr-24 04:10 293 17.2
2018-Apr-24 03:55 265 1 gusting 6 17.2
2018-Apr-24 03:40 294 1 gusting 8 17.2
2018-Apr-24 03:25 254 2 gusting 7 16.7
2018-Apr-24 03:10 346 0 gusting 5 16.7
2018-Apr-24 02:55 019 17.2
2018-Apr-24 02:40 032 17.2
2018-Apr-24 02:25 032 17.2
2018-Apr-24 02:10 055 17.2
2018-Apr-24 01:55 055 17.2
2018-Apr-24 01:40 055 17.2
2018-Apr-24 01:25 055 17.2
2018-Apr-24 01:10 355 17.2
2018-Apr-24 00:55 300 17.2
2018-Apr-24 00:40 344 17.2
2018-Apr-24 00:25 311 17.2
2018-Apr-24 00:10 319 17.2
2018-Apr-23 23:55 329 17.2
2018-Apr-23 23:40 329 17.2
2018-Apr-23 23:25 277 17.2
2018-Apr-23 23:10 297 17.2
2018-Apr-23 22:55 326 16.7
2018-Apr-23 22:40 313 17.2
2018-Apr-23 22:25 296 17.2
2018-Apr-23 22:10 323 17.8
2018-Apr-23 21:55 317 18.3
2018-Apr-23 21:40 009 18.3
2018-Apr-23 21:25 025 18.3
2018-Apr-23 21:10 026 18.3
2018-Apr-23 20:55 053 18.3
2018-Apr-23 20:40 054 18.3
2018-Apr-23 20:25 054 18.3
2018-Apr-23 20:10 053 18.3
2018-Apr-23 19:55 053 18.3
2018-Apr-23 19:40 053 18.9
2018-Apr-23 19:25 053 18.9
2018-Apr-23 19:10 053 18.9
2018-Apr-23 18:55 052 18.9
2018-Apr-23 18:40 052 18.9
2018-Apr-23 18:25 076 18.9
2018-Apr-23 18:10 053 19.4
2018-Apr-23 17:55 078 18.9
2018-Apr-23 17:40 068 18.9
2018-Apr-23 17:25 094 0 gusting 4 19.4
2018-Apr-23 17:10 090 19.4
2018-Apr-23 16:55 078 19.4
2018-Apr-23 16:40 079 19.4
2018-Apr-23 16:25 066 20.6
2018-Apr-23 16:10 080 19.4
2018-Apr-23 15:55 082 18.9
2018-Apr-23 15:40 080 1 gusting 4 18.9
2018-Apr-23 15:25 074 18.9
2018-Apr-23 15:10 059 19.4
2018-Apr-23 14:55 063 0 gusting 6 19.4
2018-Apr-23 14:40 090 2 gusting 6 18.9
2018-Apr-23 14:25 088 1 gusting 5 18.9
2018-Apr-23 14:10 084 0 gusting 5 20.0
2018-Apr-23 13:55 088 0 gusting 6 19.4
2018-Apr-23 13:40 100 2 gusting 6 20.0
2018-Apr-23 13:25 032 0 gusting 6 19.4
2018-Apr-23 13:10 076 2 gusting 6 19.4
2018-Apr-23 12:55 088 3 gusting 6 19.4
2018-Apr-23 12:40 084 20.0
2018-Apr-23 12:25 071 0 gusting 3 20.0
2018-Apr-23 12:10 069 20.0
2018-Apr-23 11:55 070 20.6
2018-Apr-23 11:40 092 20.0
2018-Apr-23 11:25 049 1 gusting 4 20.0
2018-Apr-23 11:10 111 20.0
2018-Apr-23 10:55 068 20.0
2018-Apr-23 10:40 070 20.0
2018-Apr-23 10:25 088 20.0
2018-Apr-23 10:10 092 20.0
2018-Apr-23 09:54 095 1 gusting 4 20.0
2018-Apr-23 09:39 115 20.0
2018-Apr-23 09:24 109 0 gusting 3 20.6
2018-Apr-23 09:09 109 20.0
2018-Apr-23 08:54 109 20.0
2018-Apr-23 08:39 109 19.4
2018-Apr-23 08:24 109 18.9
2018-Apr-23 08:09 221 18.3
2018-Apr-23 07:54 355 0 gusting 6 17.8
2018-Apr-23 07:39 009 0 gusting 6 18.3
2018-Apr-23 07:24 355 1 gusting 6 17.8
2018-Apr-23 07:09 285 0 gusting 4 17.2
2018-Apr-23 06:54 276 16.7
2018-Apr-23 06:39 283 16.7
2018-Apr-23 06:24 317 16.7
2018-Apr-23 06:09 342 16.7
2018-Apr-23 05:54 338 16.7
2018-Apr-23 05:39 326 16.7
2018-Apr-23 05:24 340 16.7
2018-Apr-23 05:09 346 16.7
2018-Apr-23 04:54 337 16.1
2018-Apr-23 04:38 323 0 gusting 4 16.1
2018-Apr-23 04:23 326 15.6
2018-Apr-23 04:08 350 1 gusting 6 15.6
2018-Apr-23 03:54 355 2 gusting 6 15.6
2018-Apr-23 03:38 275 1 gusting 6 15.6
2018-Apr-23 03:23 344 0 gusting 8 16.1
2018-Apr-23 03:08 315 5 gusting 8 16.1
2018-Apr-23 02:53 341 4 gusting 9 16.1
2018-Apr-23 02:38 304 16.1
2018-Apr-23 02:23 304 16.1
2018-Apr-23 02:08 304 16.1
2018-Apr-23 01:53 344 15.6
2018-Apr-23 01:38 273 0 gusting 5 16.1
2018-Apr-23 01:23 321 15.6
2018-Apr-23 01:08 321 15.6
2018-Apr-23 00:53 321 15.6
2018-Apr-23 00:38 321 15.6
2018-Apr-23 00:23 346 15.6
2018-Apr-23 00:08 055 15.6
2018-Apr-22 23:53 056 15.6
2018-Apr-22 23:38 056 16.1
2018-Apr-22 23:23 056 16.1
2018-Apr-22 23:08 056 16.1
2018-Apr-22 22:53 056 16.1
2018-Apr-22 22:38 056 16.1
2018-Apr-22 22:23 056 16.1
2018-Apr-22 22:08 056 16.1
2018-Apr-22 21:53 056 16.1
2018-Apr-22 21:38 056 16.7
2018-Apr-22 21:23 056 16.7
2018-Apr-22 21:08 056 16.7
2018-Apr-22 20:53 056 16.7
2018-Apr-22 20:38 056 16.7
2018-Apr-22 20:23 056 17.2
2018-Apr-22 20:08 056 17.2
2018-Apr-22 19:53 056 17.2
2018-Apr-22 19:38 056 17.2
2018-Apr-22 19:23 056 17.2
2018-Apr-22 19:08 056 17.2
2018-Apr-22 18:53 056 17.2
2018-Apr-22 18:38 069 17.2
2018-Apr-22 18:23 065 17.2
2018-Apr-22 18:08 070 0 gusting 6 16.7
2018-Apr-22 17:53 048 16.7
2018-Apr-22 17:38 069 2 gusting 6 17.2
2018-Apr-22 17:23 068 1 gusting 6 17.2
2018-Apr-22 17:08 080 1 gusting 6 17.2
2018-Apr-22 16:53 069 3 gusting 6 17.2
2018-Apr-22 16:38 090 6 gusting 12 17.2
2018-Apr-22 16:23 074 5 gusting 9 17.2
2018-Apr-22 16:08 080 6 gusting 11 17.2